STARLINK-32956, 63570

Orbit data source: Space-Track

STARLINK-32956, 63570 is a payload satellite owned by SpaceX/Seattle (US) in LEO that was launched on Mon, 14 Apr 2025 UTC via an FALCON 9 launch vehicle from the Air Force Eastern Test Range (AFETR). Payload-class satellites include a variety of spacecraft equipped with specific instruments for various scientific and technological missions. These include communications satellites like Starlink; space stations such as the ISS; scientific satellites like the Hubble; Earth observation satellites from companies like Planet Labs, Umbra, and HawkEye 360; GPS; miniature CubeSats for education and research; and military/defense satellites.

Loading next visibility...
Identifier
63570, 2025-076B
Orbit
LEO
Country
Flag of USUS
Related business
Manufacturer
SpaceX/Seattle
Mission
Operational Commercial Communications
Bus & Motor
STARLINK V2M, Unknown motor
Mass
730 kg wet, ~700 kg dry
Launch date (UTC)
2025-04-14 (7 months ago)
Launch vehicle
FALCON 9
Launch site
Air Force Eastern Test Range (AFETR)
Object type
Payload
Rocket body
Debris
Shape & HBR
Box + 2 Pan, 17.7 m
Radar Cross Section
33.884 m², Large (>1 m²)

Expand to show TLE details & history
Last TLE update: 15 hours ago

TLE from 15 hours ago
0 STARLINK-32956
1 63570U 25076B   25302.52173172  .00033887  00000-0  12342-2 0  9994
2 63570  43.0029 345.6780 0001284 262.6066  97.4640 15.27608680 31723
Epoch: 2025-10-29T12:31Z
TLE epoch observation values (Epoch: 2025-10-29T12:31:17.620Z)
Latitude
-0.00001°
Longitude
119.7609°
Altitude
482.853 km
Speed
7.626 km/s
True Right ascension
23h 02m 42s
True Declination
0° 00' 00"
Sunlit
Object was in full shadow at epoch
Visualization orbit readout
Latitude
Unknown
Longitude
Unknown
Altitude
Unknown
Speed
Unknown
Apparent Right ascension
Unknown
Apparent Declination
Unknown
Sunlit
N/A
Visualization observer readout
Local Sidereal Time
22:59:10
Azimuth
Unknown
Elevation
Unknown
Doppler factor
Unknown
Orbital elements
Apogee altitude
485.789 km
Perigee altitude
484.027 km
Semi-major axis
6,863.045 km
Eccentricity
0.00013
Inclination
43.0029°
RAAN
345.678°
Arg. of periapsis
262.6066°
True anomaly
97.47859°
Mean anomaly
97.464°
Eccentric anomaly
97.47129°
Mean motion
3.8174 °/min
Orbital period
94.3 mins
BSTAR
0.0012342
Loading maneuver chart data...
Computing Atmospheric mass density...
Loading historical data...
Loading historical data...
Loading historical data...
Loading historical data...
Loading historical data...
Loading historical data...
Loading historical data...

Documentation

Showing up to 5 results
|